TimeMST,TemperatureF,Dew PointF,Humidity,Sea Level PressureIn,VisibilityMPH,Wind Direction,Wind SpeedMPH,Gust SpeedMPH,PrecipitationIn,Events,Conditions,WindDirDegrees,DateUTC
12:53 AM,39.0,15.1,38,29.91,10.0,Calm,Calm,-,N/A,,Clear,0,2012-11-26 07:53:00
1:53 AM,37.0,15.1,41,29.92,10.0,SW,5.8,-,N/A,,Mostly Cloudy,220,2012-11-26 08:53:00
2:53 AM,36.0,15.1,43,29.92,10.0,WSW,5.8,-,N/A,,Clear,250,2012-11-26 09:53:00
3:53 AM,36.0,15.1,43,29.92,10.0,West,5.8,-,N/A,,Clear,260,2012-11-26 10:53:00
4:53 AM,36.0,16.0,44,29.94,10.0,Calm,Calm,-,N/A,,Partly Cloudy,0,2012-11-26 11:53:00
5:53 AM,35.1,16.0,46,29.98,10.0,SW,4.6,-,N/A,,Clear,230,2012-11-26 12:53:00
6:53 AM,34.0,16.0,48,30.02,10.0,SW,3.5,-,N/A,,Clear,220,2012-11-26 13:53:00
7:53 AM,41.0,19.0,41,30.06,10.0,Calm,Calm,-,N/A,,Clear,0,2012-11-26 14:53:00
8:53 AM,48.9,19.0,31,30.06,10.0,Calm,Calm,-,N/A,,Clear,0,2012-11-26 15:53:00
9:53 AM,59.0,21.9,24,30.05,10.0,WSW,4.6,-,N/A,,Clear,240,2012-11-26 16:53:00
10:53 AM,66.0,23.0,20,30.04,10.0,WSW,6.9,-,N/A,,Clear,250,2012-11-26 17:53:00
11:53 AM,69.1,19.9,15,30.01,10.0,SW,5.8,-,N/A,,Clear,220,2012-11-26 18:53:00
12:53 PM,71.1,18.0,13,29.98,10.0,WSW,11.5,21.9,N/A,,Clear,240,2012-11-26 19:53:00
1:53 PM,72.0,15.1,11,29.96,10.0,WNW,11.5,20.7,N/A,,Clear,300,2012-11-26 20:53:00
2:53 PM,71.1,16.0,12,29.97,10.0,West,16.1,24.2,N/A,,Clear,280,2012-11-26 21:53:00
3:53 PM,70.0,16.0,13,29.99,10.0,West,15.0,-,N/A,,Clear,280,2012-11-26 22:53:00
4:53 PM,66.0,15.1,14,30.01,10.0,West,9.2,-,N/A,,Clear,270,2012-11-26 23:53:00
5:53 PM,57.0,14.0,18,30.06,10.0,West,5.8,-,N/A,,Clear,260,2012-11-27 00:53:00
6:53 PM,54.0,14.0,21,30.09,10.0,NW,4.6,-,N/A,,Clear,320,2012-11-27 01:53:00
7:53 PM,50.0,12.0,22,30.10,10.0,NW,8.1,-,N/A,,Clear,320,2012-11-27 02:53:00
8:53 PM,46.9,12.9,25,30.10,10.0,West,3.5,-,N/A,,Clear,280,2012-11-27 03:53:00
9:53 PM,39.9,10.9,31,30.12,10.0,WSW,8.1,-,N/A,,Clear,250,2012-11-27 04:53:00
10:53 PM,41.0,10.9,29,30.12,10.0,NNW,5.8,-,N/A,,Clear,330,2012-11-27 05:53:00
11:53 PM,37.9,10.0,32,30.14,10.0,NE,10.4,-,N/A,,Clear,40,2012-11-27 06:53:00